Wind_Speed
9 10 11 13 14 15 16 18 18 19 19 20 21 22 22 23 23 24 25 26 27 29 30 30 30 30 29 29 29 30 31 31 31 31 32 32 32 32 33 32 33 33 34 35
8 9 10 12 13 13 14 15 15 17 18 18 19 20 21 21 22 24 25 25 26 27 28 30 31 31 31 30 30 31 31 32 33 33 33 32 33 34 34 34 35 35 35 35
6 8 9 10 12 12 12 12 12 13 15 17 17 18 19 20 21 22 24 25 26 27 28 29 29 31 32 32 32 32 33 33 34 34 34 34 35 35 35 36 36 35 35 34
6 8 8 9 10 10 10 11 12 13 14 15 16 17 18 18 20 21 22 24 25 26 28 29 29 30 32 33 33 33 33 33 33 34 34 35 36 36 36 36 36 35 35 35
6 7 8 8 8 9 9 10 11 12 13 14 15 16 17 18 19 21 22 24 24 26 27 28 30 30 32 32 33 34 34 34 34 34 35 35 36 36 36 37 35 35 36 36
4 5 6 7 8 8 8 9 11 12 13 14 14 16 17 17 18 19 20 22 24 25 26 27 29 30 31 31 32 32 33 33 34 34 34 35 36 36 36 35 34 34 35 35
3 4 5 7 8 8 9 9 10 12 13 13 14 15 16 17 18 19 20 22 23 24 26 27 28 29 30 30 31 31 32 33 33 33 34 34 34 34 34 34 34 35 35 36
3 4 5 6 7 8 9 10 11 12 13 14 15 16 16 17 18 18 19 21 23 24 25 26 27 28 29 30 31 32 33 33 33 33 33 33 34 34 34 34 36 37 38 39
5 5 6 7 7 8 9 10 11 13 14 15 16 16 17 17 18 19 20 21 23 24 25 26 27 28 29 30 31 32 32 32 32 33 33 34 35 35 36 37 38 39 40 41
6 7 7 8 9 10 10 11 13 14 15 16 16 16 17 18 19 20 21 23 24 24 25 27 28 28 29 29 29 30 31 32 32 33 34 35 36 37 38 39 40 41 42 42
7 8 9 10 10 11 12 13 14 16 17 18 18 17 18 19 20 21 22 23 23 24 25 26 27 28 29 30 30 31 31 32 33 34 35 36 38 38 39 40 41 42 42 43
9 10 10 11 12 13 14 15 16 18 18 19 20 18 19 20 21 22 23 23 23 24 25 26 27 28 29 30 31 31 32 33 34 35 36 37 38 39 40 41 42 43 44 44
12 12 13 13 14 15 15 16 18 19 20 20 20 19 20 21 22 23 24 24 25 26 27 28 28 29 30 31 32 33 33 35 36 37 38 39 40 41 42 43 43 44 45 46
15 15 16 16 17 17 17 18 19 20 21 21 20 20 21 23 24 25 25 26 26 28 29 29 30 31 31 32 33 34 35 36 38 39 40 42 43 44 44 44 45 46 47 48
18 18 18 19 20 20 20 20 21 22 22 23 21 22 22 24 25 26 27 27 28 29 30 30 31 32 32 33 34 36 37 38 39 41 42 43 45 46 46 46 47 48 49 51
21 21 21 21 22 23 22 22 22 23 23 24 24 23 24 26 27 27 28 28 28 29 30 31 32 32 33 34 36 37 38 40 41 42 43 44 45 46 47 47 49 50 51 52
24 24 24 24 23 24 23 22 23 23 24 25 25 25 27 27 28 28 30 30 31 31 32 33 34 35 36 37 38 40 41 42 43 44 45 46 47 48 48 49 51 51 52 53
27 27 28 27 27 27 25 25 25 26 26 27 28 28 28 29 29 30 31 32 32 33 34 35 36 37 38 39 40 42 43 44 45 45 46 47 48 49 50 51 52 53 54 55
29 29 30 30 30 29 28 28 28 29 29 29 30 30 30 31 31 32 33 33 34 35 36 37 39 40 41 42 43 44 45 46 47 47 48 49 50 51 52 54 55 55 56 56
32 32 33 33 33 32 31 31 31 32 32 31 32 32 33 33 33 33 34 35 37 38 39 40 41 42 43 44 45 46 47 48 48 49 50 51 53 54 55 56 56 57 57 57
34 34 35 35 36 35 34 34 34 34 34 34 34 34 35 35 36 36 37 38 39 40 41 42 43 44 46 47 47 48 49 49 50 51 52 53 54 55 56 57 57 58 58 57
37 37 37 37 38 37 36 36 36 36 37 36 36 36 37 37 38 39 40 41 42 43 44 45 46 47 48 49 49 50 51 51 52 53 54 55 56 56 57 57 57 58 58 58
39 39 39 39 39 39 39 38 38 38 38 38 38 39 39 40 41 42 43 44 45 46 46 47 48 49 49 50 51 52 53 53 54 55 56 56 57 57 58 58 58 58 58 58
41 41 41 41 40 40 41 41 40 40 40 40 41 42 42 43 44 45 46 47 47 48 49 50 50 51 51 52 53 54 55 55 56 56 56 57 57 58 58 58 58 58 58 58
42 42 43 43 42 43 44 44 43 43 43 43 44 44 45 46 47 48 48 49 50 50 51 51 52 52 53 54 55 55 56 56 56 56 56 57 57 58 57 57 57 57 57 57
42 43 44 44 44 46 45 45 45 46 46 46 47 47 47 48 49 49 50 51 51 52 52 53 53 53 54 54 55 55 56 56 56 56 56 57 57 57 56 56 56 56 56 55
Wind_Direction
194 198 199 200 201 202 206 212 217 217 219 223 224 224 226 229 232 235 238 239 239 240 241 243 245 248 250 252 253 254 256 258 262 266 269 269 270 272 274 276 278 281 284 285
196 199 197 196 199 200 205 211 217 218 220 224 227 229 229 231 236 238 239 240 241 243 244 244 247 250 252 254 255 257 258 261 264 266 269 270 272 274 275 277 280 281 284 285
195 194 191 192 195 199 204 211 215 219 224 227 229 231 232 236 239 240 243 244 243 244 245 248 250 251 252 254 256 259 261 263 265 266 268 270 273 274 276 278 281 282 284 285
184 191 195 193 195 201 207 211 216 219 224 229 232 234 236 238 241 243 244 245 245 246 249 251 253 254 256 257 259 261 262 263 265 267 270 273 275 276 277 279 281 282 283 285
177 185 191 195 198 205 212 215 222 227 232 235 239 243 241 244 245 245 246 247 247 249 252 254 256 257 259 260 261 264 265 265 266 269 272 274 277 277 278 279 280 281 282 284
158 173 188 196 204 212 218 224 229 233 238 241 245 248 247 248 249 249 250 251 251 252 255 257 258 260 261 262 263 265 267 267 268 271 272 274 277 278 279 278 279 281 284 286
178 185 196 202 210 219 225 230 233 238 242 246 250 252 253 255 254 255 256 254 254 256 257 259 260 261 262 263 265 266 268 269 271 272 273 275 278 278 277 278 279 281 284 286
223 217 215 215 220 228 232 238 244 249 253 254 255 258 258 261 259 258 259 259 258 259 260 262 262 262 263 264 266 267 269 271 272 273 274 275 276 277 277 278 279 281 284 286
250 244 236 235 236 240 243 247 252 257 260 260 261 263 263 264 264 263 264 264 263 262 262 264 265 264 265 267 267 267 269 270 271 272 274 276 276 277 278 280 281 282 285 287
267 262 255 254 253 252 254 256 257 262 265 266 265 266 267 267 266 266 267 267 267 267 266 266 266 267 268 268 267 267 270 271 272 273 275 277 278 279 280 281 282 284 286 288
275 271 267 266 263 263 263 263 265 268 270 272 272 271 272 272 270 269 268 268 269 270 269 269 270 271 271 271 270 269 271 273 275 276 276 278 279 280 282 283 283 285 288 289
279 277 273 272 272 271 269 270 270 272 274 275 276 276 274 273 273 271 271 271 270 272 272 273 274 274 273 273 272 271 272 273 275 275 276 279 280 282 283 285 286 287 288 289
281 280 279 277 276 276 276 275 274 275 277 278 279 280 277 275 275 274 273 273 273 274 275 275 275 276 275 275 273 273 274 276 277 279 280 282 283 284 285 286 287 288 289 289
280 280 280 280 280 281 279 278 277 277 279 280 280 279 276 276 276 277 276 275 275 275 275 276 276 277 277 277 276 275 277 278 280 282 283 283 284 286 287 287 288 289 289 290
280 280 279 280 281 282 281 281 280 281 281 282 282 280 278 277 278 278 278 277 277 277 277 277 277 278 278 278 279 279 279 281 282 283 284 285 286 288 288 289 290 290 290 291
281 281 280 280 280 281 282 283 282 282 283 284 283 282 279 278 279 279 278 278 279 279 279 279 279 279 279 280 280 281 281 281 283 284 285 286 288 288 289 290 291 292 292 292
280 281 281 281 281 282 283 283 282 283 283 283 284 283 281 281 281 281 281 281 281 281 281 281 281 282 282 282 282 283 284 284 284 285 286 287 287 288 289 290 291 292 292 293
280 280 281 281 281 281 284 283 283 283 283 283 284 283 283 282 282 282 283 283 283 283 283 283 283 283 283 284 284 285 285 285 286 287 288 288 289 289 290 291 292 292 293 294
279 279 279 280 280 281 282 283 283 283 283 284 284 283 283 283 283 284 284 284 284 284 284 285 285 285 285 286 286 287 287 287 288 289 289 290 290 290 291 292 293 293 294 294
277 277 277 278 279 280 282 282 282 282 283 283 282 282 282 283 283 283 284 285 286 286 286 286 286 286 287 287 287 288 288 289 289 290 290 291 291 292 292 293 294 294 294 294
275 275 276 277 279 280 282 282 282 282 283 283 283 283 283 283 284 284 285 285 286 287 287 287 287 287 288 288 288 288 289 290 290 291 292 293 293 293 294 294 294 294 294 294
274 274 275 276 278 280 281 281 280 281 282 282 283 284 284 284 285 285 286 286 287 287 288 288 288 288 288 289 289 290 290 291 291 292 293 294 294 295 295 295 295 295 294 294
273 274 275 275 277 278 279 279 279 280 281 282 283 283 284 285 285 285 286 287 287 288 288 288 289 289 290 290 290 290 291 291 292 293 293 294 295 295 295 295 295 295 295 294
273 273 274 274 275 275 276 277 278 279 280 281 282 283 284 285 285 286 286 287 288 288 289 289 289 290 290 290 291 291 291 292 292 293 294 295 295 296 296 296 296 296 295 295
273 273 273 273 274 274 274 276 277 278 278 279 281 282 284 284 285 286 287 287 288 288 289 289 290 290 290 290 291 291 292 292 293 293 294 295 296 296 296 296 296 296 296 296
273 273 273 273 273 273 274 275 276 277 278 280 281 283 284 284 285 286 287 287 288 289 289 289 290 290 291 291 292 292 293 293 294 294 295 296 296 296 297 297 297 297 296 296
Height
5704 5707 5708 5711 5713 5716 5719 5722 5725 5728 5730 5734 5737 5740 5743 5746 5748 5751 5754 5757 5760 5763 5765 5768 5770 5772 5774 5775 5777 5778 5779 5780 5781 5781 5781 5781 5782 5782 5782 5781 5781 5780 5778 5776
5707 5708 5710 5711 5714 5716 5719 5722 5725 5727 5730 5732 5735 5738 5740 5743 5745 5747 5750 5752 5755 5757 5760 5762 5764 5766 5768 5769 5771 5772 5773 5774 5774 5774 5774 5774 5775 5775 5774 5774 5773 5772 5770 5769
5708 5710 5711 5713 5715 5717 5720 5722 5725 5727 5729 5731 5734 5736 5738 5740 5741 5743 5746 5748 5750 5752 5754 5756 5758 5760 5761 5763 5764 5765 5766 5767 5767 5767 5767 5768 5767 5767 5767 5766 5765 5764 5763 5761
5709 5711 5712 5714 5716 5718 5721 5722 5724 5726 5728 5730 5732 5734 5736 5737 5738 5740 5742 5743 5745 5747 5749 5750 5752 5754 5755 5756 5757 5758 5759 5760 5760 5760 5760 5760 5759 5759 5759 5758 5757 5756 5755 5753
5711 5712 5713 5715 5717 5719 5721 5722 5724 5725 5727 5729 5730 5732 5734 5734 5735 5736 5738 5739 5740 5742 5744 5745 5746 5748 5749 5750 5751 5752 5752 5752 5753 5753 5753 5752 5752 5751 5750 5750 5749 5748 5747 5746
5713 5714 5715 5717 5718 5719 5720 5722 5724 5725 5726 5728 5729 5729 5731 5731 5732 5733 5734 5735 5736 5737 5738 5739 5740 5741 5742 5743 5744 5745 5745 5745 5745 5745 5745 5745 5744 5743 5742 5742 5741 5740 5739 5737
5715 5716 5717 5717 5719 5720 5721 5722 5723 5724 5725 5726 5727 5727 5729 5728 5729 5729 5730 5731 5731 5733 5733 5734 5734 5735 5736 5737 5737 5738 5738 5738 5738 5738 5737 5737 5736 5735 5734 5734 5733 5732 5730 5729
5716 5718 5718 5718 5719 5720 5720 5721 5723 5723 5723 5724 5724 5724 5726 5725 5725 5726 5726 5726 5727 5728 5728 5728 5729 5729 5730 5730 5731 5731 5731 5731 5730 5730 5730 5729 5728 5727 5726 5725 5724 5723 5721 5719
5717 5718 5718 5718 5719 5719 5719 5720 5721 5721 5721 5722 5722 5722 5723 5722 5722 5722 5722 5722 5722 5723 5723 5723 5723 5724 5724 5724 5724 5724 5723 5723 5723 5722 5722 5721 5720 5719 5718 5717 5715 5713 5712 5709
5718 5718 5718 5718 5719 5719 5719 5719 5719 5719 5718 5718 5719 5720 5720 5719 5719 5719 5718 5718 5718 5718 5718 5718 5718 5718 5718 5717 5717 5717 5716 5716 5715 5715 5714 5713 5711 5710 5709 5707 5705 5703 5701 5699
5717 5718 5718 5718 5717 5717 5717 5717 5716 5716 5715 5715 5715 5719 5716 5715 5714 5714 5714 5713 5713 5713 5713 5712 5712 5712 5711 5711 5710 5710 5709 5709 5708 5707 5706 5704 5703 5701 5700 5698 5695 5693 5691 5688
5716 5717 5716 5716 5715 5715 5714 5714 5714 5714 5713 5712 5711 5716 5712 5710 5709 5709 5709 5708 5708 5708 5707 5706 5706 5705 5705 5704 5703 5702 5702 5701 5700 5699 5697 5695 5694 5692 5690 5687 5685 5682 5679 5677
5715 5715 5714 5714 5715 5713 5711 5711 5710 5709 5708 5707 5707 5711 5707 5706 5704 5704 5704 5703 5703 5702 5701 5700 5699 5698 5698 5697 5696 5695 5694 5693 5691 5690 5688 5686 5684 5682 5679 5677 5674 5671 5668 5665
5712 5712 5712 5711 5710 5708 5708 5707 5706 5705 5704 5703 5704 5704 5702 5700 5699 5699 5698 5697 5697 5696 5694 5693 5692 5691 5690 5689 5688 5687 5685 5684 5682 5680 5678 5676 5673 5671 5668 5665 5662 5659 5656 5653
5708 5708 5707 5706 5705 5704 5703 5703 5701 5700 5699 5698 5699 5698 5697 5695 5694 5693 5692 5691 5690 5689 5688 5686 5685 5684 5682 5681 5679 5678 5676 5674 5672 5670 5668 5665 5663 5660 5657 5654 5650 5647 5643 5640
5703 5703 5702 5702 5700 5699 5698 5698 5696 5695 5694 5693 5692 5692 5691 5689 5687 5686 5685 5684 5683 5682 5680 5679 5677 5676 5674 5672 5670 5668 5666 5664 5662 5659 5657 5654 5651 5648 5645 5641 5638 5634 5630 5626
5698 5697 5696 5696 5695 5693 5693 5693 5691 5689 5688 5687 5685 5686 5683 5682 5680 5679 5678 5676 5675 5674 5672 5670 5669 5667 5665 5662 5660 5658 5656 5653 5651 5648 5645 5642 5639 5636 5632 5628 5624 5620 5616 5612
5692 5690 5689 5689 5689 5687 5690 5686 5684 5683 5681 5680 5678 5677 5676 5674 5673 5671 5670 5668 5666 5665 5663 5661 5659 5657 5655 5652 5650 5647 5645 5642 5639 5636 5632 5629 5626 5622 5619 5615 5610 5606 5602 5598
5684 5683 5682 5681 5680 5680 5681 5679 5676 5675 5674 5672 5670 5669 5667 5666 5664 5663 5661 5659 5657 5655 5653 5651 5649 5647 5644 5642 5639 5636 5633 5630 5626 5623 5619 5616 5612 5608 5604 5600 5596 5591 5587 5583
5676 5675 5675 5673 5671 5671 5674 5671 5668 5667 5666 5665 5662 5660 5659 5657 5656 5655 5652 5650 5647 5645 5643 5641 5638 5635 5633 5630 5627 5624 5621 5617 5613 5610 5606 5602 5598 5594 5590 5585 5581 5576 5571 5567
5667 5666 5665 5664 5661 5662 5664 5661 5659 5659 5658 5655 5653 5651 5649 5648 5646 5644 5642 5639 5637 5635 5632 5630 5627 5624 5621 5617 5614 5611 5608 5604 5600 5596 5592 5588 5583 5579 5574 5570 5565 5560 5556 5552
5658 5656 5656 5654 5652 5655 5652 5650 5649 5648 5646 5644 5642 5641 5639 5637 5635 5633 5631 5628 5626 5623 5621 5618 5615 5612 5608 5604 5601 5598 5594 5590 5587 5583 5578 5574 5569 5563 5558 5554 5549 5544 5539 5535
5647 5647 5645 5645 5646 5643 5641 5639 5638 5637 5635 5634 5632 5630 5628 5626 5624 5622 5619 5617 5614 5611 5608 5605 5602 5599 5595 5591 5587 5584 5580 5576 5572 5568 5563 5558 5553 5548 5543 5538 5533 5528 5523 5518
5636 5635 5634 5634 5634 5632 5629 5627 5626 5625 5624 5622 5621 5619 5617 5615 5612 5610 5607 5604 5601 5598 5595 5592 5588 5585 5581 5577 5573 5569 5565 5561 5557 5553 5548 5543 5538 5533 5527 5522 5516 5511 5506 5501
5625 5623 5622 5621 5622 5619 5618 5616 5615 5613 5612 5610 5609 5607 5604 5602 5600 5597 5594 5591 5588 5585 5582 5578 5575 5571 5567 5563 5559 5554 5550 5546 5542 5537 5533 5527 5522 5517 5512 5507 5501 5495 5490 5484
5614 5611 5609 5609 5608 5605 5605 5604 5602 5601 5599 5598 5596 5594 5591 5589 5586 5583 5581 5578 5574 5571 5568 5564 5560 5556 5552 5548 5544 5539 5535 5530 5526 5522 5517 5512 5506 5501 5496 5491 5486 5480 5474 5470